Location: Ammareddip?lem
(16.9681°N, 80.4999°E)
Time: 14:45:53
(UTC+00:00)

Envisat - Pass Details

Date: 23 October 2021
Orbit: 764 x 766 km, 98.2° (Epoch: 04 December)

Event Time Altitude Azimuth Distance (km) Brightness Sun altitude
Rises 23:24:43 0° 13° (NNE) 3,223 6.3 -17.0°
Reaches altitude 10° 23:27:01 10° 14° (NNE) 2,296 5.5 -16.4°
Maximum altitude 23:32:05 82° 102° (ESE) 773 3.1 -15.2°
Drops below altitude 10° 23:37:09 10° 190° (S) 2,291 5.5 -14.0°
Sets 23:39:26 0° 191° (S) 3,215 6.2 -13.5°
